Regional Weather Roundup
Issued by NWS Raleigh/Durham, NC

Home | Current Version | Previous Version | Text Only | Print | Product List | Glossary On
Versions: 1 2 3 4 5 6 7 8 9 10 11 12 13 14 15 16 17 18 19 20 21 22 23 24 25 26 27 28 29 30 31 32 33 34 35 36 37 38 39 40 41 42 43 44 45 46 47 48 49 50
000
ASUS42 KRAH 131410
RWRRAH
NORTH CAROLINA WEATHER ROUNDUP
NATIONAL WEATHER SERVICE RALEIGH NC
900 AM EST SAT FEB 13 2016

NOTE: "FAIR" INDICATES FEW OR NO CLOUDS BELOW 12,000 FEET WITH NO
SIGNIFICANT WEATHER AND/OR OBSTRUCTIONS TO VISIBILITY.

NCZ001-053-055-056-065-067-131500-
WESTERN NORTH CAROLINA

CITY           SKY/WX    TMP DP  RH WIND       PRES   REMARKS
ASHEVILLE      SUNNY     20   6  55 N22G37    30.20R WCI   3
JEFFERSON      CLOUDY    13  -1  55 NW20G41   30.06R WCI  -5
MORGANTON      SUNNY     27   6  40 NW8G20    30.29R WCI  19
HICKORY        SUNNY     27   6  41 N12G20    30.23R WCI  17
RUTHERFORDTON  SUNNY     30   6  37 CALM      30.25R
MOUNT AIRY     PTSUNNY   24   1  36 NW12G23   30.27R WCI  13
BOONE          CLOUDY    13   1  59 NW31G56   30.05R WCI  -8
$$

NCZ021-022-025-041-071-084-088-131500-
CENTRAL NORTH CAROLINA

CITY           SKY/WX    TMP DP  RH WIND       PRES   REMARKS
CHARLOTTE      MOSUNNY   33   7  33 N9        30.26R WCI  25
GREENSBORO     MOSUNNY   26   2  35 NW12G20   30.25R WCI  16
WINSTON-SALEM  SUNNY     25   0  33 NW18G28   30.27R WCI  11
RALEIGH-DURHAM MOSUNNY   29   6  38 N9        30.28R WCI  20
FORT BRAGG     SUNNY     33  16  50 N14       30.25R WCI  23
FAYETTEVILLE   SUNNY     32  21  64 N12       30.26R WCI  23
BURLINGTON     SUNNY     27   4  37 NW14G20   30.27R WCI  16
LAURINBURG     SUNNY     32  23  69 N7        30.27R WCI  26
$$

NCZ011-015-027-028-043-044-047-080-103-131500-
NORTHEASTERN NORTH CAROLINA

CITY           SKY/WX    TMP DP  RH WIND       PRES   REMARKS
ROCKY MT-WILSO SUNNY     29   7  39 NW20G31   30.27R WCI  16
GREENVILLE     SUNNY     32  12  43 N15G21    30.25R WCI  22
WASHINGTON     SUNNY     31  14  48 NW9G23    30.23R WCI  23
ELIZABETH CITY SUNNY     28  18  66 NW21G31   30.21R WCI  15
MANTEO         NOT AVBL
CAPE HATTERAS  SUNNY     36  23  59 NW10G17   30.18R WCI  28
$$

NCZ078-087-090-091-093-098-101-131500-
SOUTHEASTERN NORTH CAROLINA

CITY           SKY/WX    TMP DP  RH WIND       PRES   REMARKS
LUMBERTON      SUNNY     34  23  64 N9        30.26R WCI  27
GOLDSBORO      SUNNY     32  16  51 N17       30.24R WCI  21
KINSTON        SUNNY     30  21  69 N9G16     30.26R WCI  22
KENANSVILLE    SUNNY     31  25  76 CALM      30.25R
NEW BERN       SUNNY     33  24  69 N7        30.24R WCI  27
CHERRY POINT   SUNNY     34  21  59 N17G26    30.23R WCI  23
BEAUFORT       SUNNY     35  19  52 N20G28    30.21R WCI  24
JACKSONVILLE   SUNNY     34  23  64 N13       30.24R WCI  25
WILMINGTON     SUNNY     36  25  64 N9G21     30.24R WCI  29
$$




USA.gov is the U.S. government's official web portal to all federal, state and local government web resources and services.